Regional Weather Roundup
Issued by NWS

Home | Current Version | Previous Version | Graphics & Text | Print | Product List | Glossary On
Versions: 1 2 3 4 5 6 7 8 9 10 11 12 13 14 15 16 17 18 19 20 21 22 23 24 25 26 27 28 29 30 31 32 33 34 35 36 37 38 39 40 41 42 43 44 45 46 47 48 49 50
516
ASUS43 KLSX 161607
RWRMO

WEATHER SUMMARY FOR MISSOURI
NATIONAL WEATHER SERVICE SPRINGFIELD MO
1100 AM CDT WED AUG 16 2017

NOTE: "FAIR" INDICATES FEW OR NO CLOUDS BELOW 12,000 FEET WITH NO
       SIGNIFICANT WEATHER AND/OR OBSTRUCTIONS TO VISIBILITY.
       CURRENT SKY AND/OR WEATHER CONDITIONS ARE NOT AVAILABLE FOR
       CHILLICOTHE AND FARMINGTON.

MOZ001>031-035>038-043-044-053-054-161700-
...NORTHERN AND WESTERN MISSOURI...

CITY           SKY/WX    TMP DP  RH WIND       PRES   REMARKS
KANSAS CTY INT CLOUDY    74  72  93 S13       29.85F
KANSAS C DTWN  LGT RAIN  76  74  93 E3        29.85R
LEE`S SUMMIT   CLOUDY    76  75  97 S10       29.88R
ST JOSEPH      CLOUDY    76  75  97 S10       29.81S
CHILLICOTHE      N/A     75  73  93 SE5       29.86R
KIRKSVILLE     CLOUDY    77  72  84 SE8       29.89F

$$
MOZ066>068-077>081-088>096-101>105-161700-
...SOUTHWEST MISSOURI...

CITY           SKY/WX    TMP DP  RH WIND       PRES   REMARKS
SPRINGFIELD    SUNNY     83  76  79 S18G26    29.93R HX  91
JOPLIN         MOSUNNY   87  76  69 SW16G26   29.89F HX  97
BRANSON        CLOUDY    77  75  94 CALM      29.98S

$$
MOZ032>034-039>042-045>050-055>058-069>072-161700-
...CENTRAL MISSOURI...

CITY           SKY/WX    TMP DP  RH WIND       PRES   REMARKS
COLUMBIA       CLOUDY    74  73  97 SE8       29.93F
JEFFERSON CITY CLOUDY    75  75 100 E5        29.92F
ROLLA          PTSUNNY   78  75  90 S8        29.96S
SEDALIA        PTSUNNY   81  76  84 SE15      29.89F
WARRENSBURG    CLOUDY    79  72  78 S9        29.86S
OSAGE BEACH    CLOUDY    80  75  84 S10       29.92F

$$
MOZ051-052-059>065-161700-
...EAST CENTRAL MISSOURI...

CITY           SKY/WX    TMP DP  RH WIND       PRES   REMARKS
ST LOUIS INTL  CLOUDY    83  73  72 S13       29.95F
SPIRIT OF STL  CLOUDY    81  75  82 S10       29.94S
ST CHARLES     CLOUDY    81  74  79 S8        29.94S

$$
MOZ072>076-082>087-097>100-106>115-161700-
...SOUTH CENTRAL AND SOUTHEAST MISSOURI...

CITY           SKY/WX    TMP DP  RH WIND       PRES   REMARKS
CAPE GIRARDEAU CLOUDY    81  75  82 S7        29.99S
FARMINGTON     CLOUDY    76  74  93 S9        30.00S
POPLAR BLUFF   CLOUDY    82  78  88 S6        29.98S HX  91
WEST PLAINS    CLOUDY    80  75  84 S8        29.99F

$$



USA.gov is the U.S. government's official web portal to all federal, state and local government web resources and services.